Погода в Учебном

Россия / Кабардино-Балкарская Республика     43°46′46″N   43°55′45″E
темп.,
°C
ветер,
м/с
пор.,
м/с
влажн.,
%
обл.,
%
осадки,
мм/ч
давл.,
гПа
погр.,
м
8 мая, сб
сб800:00+12зюз22747 0.0 101911
03:00+11ююз11784 0.0 101810
06:00+12ю22775 0.0 101855
09:00+18вюв355786 0.0 1016581
12:00+22в55465 0.0 10141302
15:00+23в5544100 0.0 10131449
18:00+20в376379 0.0 1012206
21:00+14в356932 0.0 101376
9 мая, вс
вс900:00+11всв228111 0.0 101224
03:00+10св118722 0.0 101010
06:00+12юв1179100 0.0 101049
09:00+18с346216 0.0 1009523
12:00+22ссз665498 0.0 10081603
15:00+16ссз10128188 1.8 1011775
18:00+9сз132181100 0.7 1016950
21:00+7сз111985100 4.2 1020905
10 мая, пн
пн1000:00+8зсз81677100 0.3 1022842
03:00+8зсз61272100 0.3 1023617
06:00+8зюз277682 0.0 1023451
09:00+12сз7105078 0.0 10221742
12:00+14сз5742100 0.0 10212193
15:00+14з665093 0.0 10201683
18:00+11з5767100 0.1 1022886
21:00+8юз468299 0.3 1023162
11 мая, вт
вт1100:00+6ююз3488100 0.1 102173
03:00+5ю369065 0.1 1021131
06:00+6ююв368696 0.0 1020195
09:00+11вюв5763100 0.0 10191283
12:00+13вюв5658100 0.1 10191506
15:00+16в5549100 0.1 10181691
18:00+14в476539 0.0 1018455
21:00+8в22845 0.0 101811
12 мая, ср
ср1200:00+7всв229090 0.0 101813
03:00+6всв229312 0.0 101817
06:00+7всв23905 0.0 1018119
09:00+13в466919 0.0 1017885
12:00+16в4560100 0.0 10161411
15:00+17в3458100 0.0 10151323
18:00+18в116513 0.0 1015173
21:00+12зюз11760 0.0 101510